Location: Marseilles
(40.7010°N, 83.3930°W)
Time: 07:04:37
(UTC-04:00)

Cosmos 1459 Rocket - Visible Passes

Search period start: 19 October 2017 00:00
Search period end: 29 October 2017 00:00
Orbit: 938 x 999 km, 83.0° (Epoch: 18 October)

Date Brightness Start Highest point End Pass type
(mag) Time Alt. Az. Time Alt. Az. Time Alt. Az.
21 Oct 6.3 21:58:47 13° N 21:58:47 13° N 21:59:19 10° N visible
22 Oct 6.9 06:59:53 10° NE 07:02:19 12° ENE 07:04:42 10° E visible
22 Oct 6.3 22:21:36 14° N 22:21:36 14° N 22:22:31 10° N visible
23 Oct 6.5 07:21:28 10° NNE 07:26:13 22° ENE 07:30:54 10° ESE visible
23 Oct 6.0 20:59:49 14° NNE 20:59:49 14° NNE 21:00:39 10° NNE visible
23 Oct 6.4 22:44:18 14° NNW 22:44:18 14° NNW 22:45:23 10° NNW visible
24 Oct 5.7 21:22:18 21° N 21:22:18 21° N 21:24:16 10° N visible
24 Oct 6.7 23:06:45 12° NW 23:06:45 12° NW 23:07:38 10° NNW visible
25 Oct 5.7 19:59:55 14° NE 19:59:55 14° NE 20:01:06 10° NE visible
25 Oct 5.3 21:35:05 10° SSW 21:44:19 31° NNW 21:47:36 10° N visible
26 Oct 6.7 06:47:04 10° NNE 06:50:56 17° ENE 06:54:46 10° ESE visible
26 Oct 4.5 20:14:05 10° SSE 20:19:42 35° E 20:25:22 10° NNE visible
26 Oct 5.3 21:59:09 10° SW 22:04:51 35° WNW 22:10:39 10° N visible
27 Oct 6.1 07:09:22 10° NNE 07:14:45 28° ENE 07:20:03 10° SE visible
27 Oct 3.9 20:36:42 10° S 20:42:53 61° E 20:49:10 10° NNE visible
27 Oct 6.2 22:23:59 10° WSW 22:28:36 21° WNW 22:33:16 10° NNW visible
28 Oct 5.2 07:32:16 10° N 07:38:24 49° ENE 07:44:23 10° SSE visible
28 Oct 5.4 19:18:26 10° ESE 19:21:51 15° E 19:25:17 10° NE visible
28 Oct 4.0 20:59:54 10° S 21:06:13 79° W 21:12:37 10° N visible
28 Oct 6.8 22:50:25 10° W 22:52:32 12° WNW 22:54:39 10° NW visible
